GALAXY 23 (G-23) 1 27854U 03034A 21065.55558321 -.00000003 00000-0 00000-0 0 9998 2 27854 0.0504 264.7946 0002906 87.5449 251.1586 1.00272166 64406 BLOCK DM-SL R/B 1 27855U 03034B 21065.77363382 .00000036 00000-0 42618-3 0 9993 2 27855 0.8950 334.0790 7138267 273.6512 247.0603 2.24644780144319